{"data":{"norad_id":60242,"intl_designator":"2024-128H","name":"CURIUM ONE","alt_names":[],"object_type":"PAYLOAD","status":"ACTIVE","operator":null,"country":"GER","launch_date":"2024-07-09","launch_site_code":"FRGUI","launch_vehicle":null,"mission":null,"orbit_class":"UNKNOWN","rcs_meters":null,"size_class":null,"mass_kg":null,"dimensions":null,"purposes":[],"wikipedia_slug":null,"has_3d_model":false,"image_url":null,"decayed_at":null,"tle_current":{"epoch":"2026-09-22T13:51:10.473984Z","epoch_age_seconds":101700,"freshness":"FRESH","line1":"1 60242U 24128H   26265.57720456  .00004904  00000+0  28136-3 0  9997","line2":"2 60242  61.9772 220.5034 0025550 150.0523 210.2041 15.13699403121192","mean_motion":15.13699403,"eccentricity":0.002555,"inclination_deg":61.9772,"raan_deg":220.5034,"arg_perigee_deg":150.0523,"mean_anomaly_deg":210.2041,"bstar":0.00028136,"rev_number":12119,"period_min":95.13117314746,"perigee_km":507.29255226211,"apogee_km":542.56722406062,"semimajor_km":6903.0668881614,"source":"CELESTRAK","updated_at":"2026-09-23T09:00:20.490392Z"}}}